owner,sensor,date,latitude,longitude,vertical_datum,sea_water_practical_salinity,qcFlag 
DISL,ioos:station:DISL:CATA:1,2013-09-01T00:00:00Z,30.3085,-88.1395,2.322,17.5,1111122 
DISL,ioos:station:DISL:CATA:1,2013-09-01T00:30:00Z,30.3085,-88.1395,2.32,17.94,1111122 
DISL,ioos:station:DISL:CATA:1,2013-09-01T01:00:00Z,30.3085,-88.1395,2.325,17.25,1111122 
DISL,ioos:station:DISL:CATA:1,2013-09-01T01:30:00Z,30.3085,-88.1395,2.317,17.78,1111122 
DISL,ioos:station:DISL:CATA:1,2013-09-01T02:00:00Z,30.3085,-88.1395,2.329,17.87,1111122 
DISL,ioos:station:DISL:CATA:1,2013-09-01T02:30:00Z,30.3085,-88.1395,2.349,16.7,1111122 
DISL,ioos:station:DISL:CATA:1,2013-09-01T03:00:00Z,30.3085,-88.1395,2.356,16.52,1111122 
DISL,ioos:station:DISL:CATA:1,2013-09-01T03:30:00Z,30.3085,-88.1395,2.387,16.83,1111122 
DISL,ioos:station:DISL:CATA:1,2013-09-01T04:00:00Z,30.3085,-88.1395,2.411,16.78,1111122 
DISL,ioos:station:DISL:CATA:1,2013-09-01T04:30:00Z,30.3085,-88.1395,2.425,16.38,1111122 
DISL,ioos:station:DISL:CATA:1,2013-09-01T05:00:00Z,30.3085,-88.1395,2.438,16.35,1111122 
DISL,ioos:station:DISL:CATA:1,2013-09-01T05:30:00Z,30.3085,-88.1395,2.457,16.26,1111122 
DISL,ioos:station:DISL:CATA:1,2013-09-01T06:00:00Z,30.3085,-88.1395,2.465,15.74,1111122 
DISL,ioos:station:DISL:CATA:1,2013-09-01T06:30:00Z,30.3085,-88.1395,2.459,16.27,1111122 
DISL,ioos:station:DISL:CATA:1,2013-09-01T07:00:00Z,30.3085,-88.1395,2.482,15.97,1111122 
DISL,ioos:station:DISL:CATA:1,2013-09-01T07:30:00Z,30.3085,-88.1395,2.504,16.49,1111122 
DISL,ioos:station:DISL:CATA:1,2013-09-01T08:00:00Z,30.3085,-88.1395,2.516,16.99,1111122 
DISL,ioos:station:DISL:CATA:1,2013-09-01T08:30:00Z,30.3085,-88.1395,2.539,17.21,1111122 
DISL,ioos:station:DISL:CATA:1,2013-09-01T09:00:00Z,30.3085,-88.1395,2.561,17.15,1111122 
DISL,ioos:station:DISL:CATA:1,2013-09-01T09:30:00Z,30.3085,-88.1395,2.574,18.31,1111122 
DISL,ioos:station:DISL:CATA:1,2013-09-01T10:00:00Z,30.3085,-88.1395,2.586,18.65,1111122 
DISL,ioos:station:DISL:CATA:1,2013-09-01T10:30:00Z,30.3085,-88.1395,2.586,18.81,1111122 
DISL,ioos:station:DISL:CATA:1,2013-09-01T11:00:00Z,30.3085,-88.1395,2.592,18.15,1111122 
DISL,ioos:station:DISL:CATA:1,2013-09-01T11:30:00Z,30.3085,-88.1395,2.604,18.21,1111122 
DISL,ioos:station:DISL:CATA:1,2013-09-01T12:00:00Z,30.3085,-88.1395,2.611,18.38,1111122 
DISL,ioos:station:DISL:CATA:1,2013-09-01T12:30:00Z,30.3085,-88.1395,2.62,17.8,1111122 
DISL,ioos:station:DISL:CATA:1,2013-09-01T13:00:00Z,30.3085,-88.1395,2.627,18.51,1111122 
DISL,ioos:station:DISL:CATA:1,2013-09-01T13:30:00Z,30.3085,-88.1395,2.629,18.44,1111122 
DISL,ioos:station:DISL:CATA:1,2013-09-01T14:00:00Z,30.3085,-88.1395,2.625,18.65,1111122 
DISL,ioos:station:DISL:CATA:1,2013-09-01T14:30:00Z,30.3085,-88.1395,2.614,18.55,1111122 
DISL,ioos:station:DISL:CATA:1,2013-09-01T15:00:00Z,30.3085,-88.1395,2.607,18.43,1111122 
DISL,ioos:station:DISL:CATA:1,2013-09-01T15:30:00Z,30.3085,-88.1395,2.593,18.11,1111122 
DISL,ioos:station:DISL:CATA:1,2013-09-01T16:00:00Z,30.3085,-88.1395,2.573,16.72,1111122 
DISL,ioos:station:DISL:CATA:1,2013-09-01T16:30:00Z,30.3085,-88.1395,2.56,16.92,1111122 
DISL,ioos:station:DISL:CATA:1,2013-09-01T17:00:00Z,30.3085,-88.1395,2.537,17.2,1111122 
DISL,ioos:station:DISL:CATA:1,2013-09-01T17:30:00Z,30.3085,-88.1395,2.516,17.23,1111122 
DISL,ioos:station:DISL:CATA:1,2013-09-01T18:00:00Z,30.3085,-88.1395,2.468,16.74,1111122 
DISL,ioos:station:DISL:CATA:1,2013-09-01T18:30:00Z,30.3085,-88.1395,2.445,16.58,1111122 
DISL,ioos:station:DISL:CATA:1,2013-09-01T19:00:00Z,30.3085,-88.1395,2.422,17.83,1111122 
DISL,ioos:station:DISL:CATA:1,2013-09-01T19:30:00Z,30.3085,-88.1395,2.395,18.0,1111122 
DISL,ioos:station:DISL:CATA:1,2013-09-01T20:00:00Z,30.3085,-88.1395,2.373,17.58,1111122 
DISL,ioos:station:DISL:CATA:1,2013-09-01T20:30:00Z,30.3085,-88.1395,2.351,17.04,1111122 
DISL,ioos:station:DISL:CATA:1,2013-09-01T21:00:00Z,30.3085,-88.1395,2.337,17.25,1111122 
DISL,ioos:station:DISL:CATA:1,2013-09-01T21:30:00Z,30.3085,-88.1395,2.307,17.62,1111122 
DISL,ioos:station:DISL:CATA:1,2013-09-01T22:00:00Z,30.3085,-88.1395,2.303,17.66,1111122 
DISL,ioos:station:DISL:CATA:1,2013-09-01T22:30:00Z,30.3085,-88.1395,2.305,17.37,1111122 
DISL,ioos:station:DISL:CATA:1,2013-09-01T23:00:00Z,30.3085,-88.1395,2.309,18.18,1111122 
DISL,ioos:station:DISL:CATA:1,2013-09-01T23:30:00Z,30.3085,-88.1395,2.3,16.45,1111122 
DISL,ioos:station:DISL:CATA:1,2013-09-02T00:00:00Z,30.3085,-88.1395,2.297,16.93,1111122 
DISL,ioos:station:DISL:CATA:1,2013-09-02T00:30:00Z,30.3085,-88.1395,2.285,16.85,1111122 
DISL,ioos:station:DISL:CATA:1,2013-09-02T01:00:00Z,30.3085,-88.1395,2.283,16.45,1111122 
DISL,ioos:station:DISL:CATA:1,2013-09-02T01:30:00Z,30.3085,-88.1395,2.283,16.72,1111122 
DISL,ioos:station:DISL:CATA:1,2013-09-02T02:00:00Z,30.3085,-88.1395,2.305,16.93,1111122 
DISL,ioos:station:DISL:CATA:1,2013-09-02T02:30:00Z,30.3085,-88.1395,2.31,17.45,1111122 
DISL,ioos:station:DISL:CATA:1,2013-09-02T03:00:00Z,30.3085,-88.1395,2.334,16.56,1111122 
DISL,ioos:station:DISL:CATA:1,2013-09-02T03:30:00Z,30.3085,-88.1395,2.372,16.59,1111122 
DISL,ioos:station:DISL:CATA:1,2013-09-02T04:00:00Z,30.3085,-88.1395,2.376,16.58,1111122 
DISL,ioos:station:DISL:CATA:1,2013-09-02T04:30:00Z,30.3085,-88.1395,2.39,16.44,1111122 
DISL,ioos:station:DISL:CATA:1,2013-09-02T05:00:00Z,30.3085,-88.1395,2.403,16.09,1111122 
DISL,ioos:station:DISL:CATA:1,2013-09-02T05:30:00Z,30.3085,-88.1395,2.428,15.69,1111122 
DISL,ioos:station:DISL:CATA:1,2013-09-02T06:00:00Z,30.3085,-88.1395,2.431,17.05,1111122 
DISL,ioos:station:DISL:CATA:1,2013-09-02T06:30:00Z,30.3085,-88.1395,2.425,17.29,1111122 
DISL,ioos:station:DISL:CATA:1,2013-09-02T07:00:00Z,30.3085,-88.1395,2.44,17.57,1111122 
DISL,ioos:station:DISL:CATA:1,2013-09-02T07:30:00Z,30.3085,-88.1395,2.451,17.71,1111122 
DISL,ioos:station:DISL:CATA:1,2013-09-02T08:00:00Z,30.3085,-88.1395,2.467,17.91,1111122 
DISL,ioos:station:DISL:CATA:1,2013-09-02T08:30:00Z,30.3085,-88.1395,2.467,19.0,1111122 
DISL,ioos:station:DISL:CATA:1,2013-09-02T09:00:00Z,30.3085,-88.1395,2.49,18.61,1111122 
DISL,ioos:station:DISL:CATA:1,2013-09-02T09:30:00Z,30.3085,-88.1395,2.52,17.92,1111122 
DISL,ioos:station:DISL:CATA:1,2013-09-02T10:00:00Z,30.3085,-88.1395,2.528,17.8,1111122 
DISL,ioos:station:DISL:CATA:1,2013-09-02T10:30:00Z,30.3085,-88.1395,2.552,18.04,1111122 
DISL,ioos:station:DISL:CATA:1,2013-09-02T11:00:00Z,30.3085,-88.1395,2.568,18.2,1111122 
DISL,ioos:station:DISL:CATA:1,2013-09-02T11:30:00Z,30.3085,-88.1395,2.585,18.25,1111122 
DISL,ioos:station:DISL:CATA:1,2013-09-02T12:00:00Z,30.3085,-88.1395,2.591,18.82,1111122 
DISL,ioos:station:DISL:CATA:1,2013-09-02T12:30:00Z,30.3085,-88.1395,2.591,18.46,1111122 
DISL,ioos:station:DISL:CATA:1,2013-09-02T13:00:00Z,30.3085,-88.1395,2.593,17.75,1111122 
DISL,ioos:station:DISL:CATA:1,2013-09-02T13:30:00Z,30.3085,-88.1395,2.589,18.76,1111122 
DISL,ioos:station:DISL:CATA:1,2013-09-02T14:00:00Z,30.3085,-88.1395,2.591,17.41,1111122 
DISL,ioos:station:DISL:CATA:1,2013-09-02T14:30:00Z,30.3085,-88.1395,2.584,18.99,1111122 
DISL,ioos:station:DISL:CATA:1,2013-09-02T15:00:00Z,30.3085,-88.1395,2.58,17.65,1111122 
DISL,ioos:station:DISL:CATA:1,2013-09-02T15:30:00Z,30.3085,-88.1395,2.567,19.69,1111122 
DISL,ioos:station:DISL:CATA:1,2013-09-02T16:00:00Z,30.3085,-88.1395,2.549,19.75,1111122 
DISL,ioos:station:DISL:CATA:1,2013-09-02T16:30:00Z,30.3085,-88.1395,2.51,20.15,1111122 
DISL,ioos:station:DISL:CATA:1,2013-09-02T17:00:00Z,30.3085,-88.1395,2.501,20.05,1111122 
DISL,ioos:station:DISL:CATA:1,2013-09-02T17:30:00Z,30.3085,-88.1395,2.474,19.82,1111122 
DISL,ioos:station:DISL:CATA:1,2013-09-02T18:00:00Z,30.3085,-88.1395,2.449,19.15,1111122 
DISL,ioos:station:DISL:CATA:1,2013-09-02T18:30:00Z,30.3085,-88.1395,2.429,19.5,1111122 
DISL,ioos:station:DISL:CATA:1,2013-09-02T19:00:00Z,30.3085,-88.1395,2.405,19.97,1111122 
DISL,ioos:station:DISL:CATA:1,2013-09-02T19:30:00Z,30.3085,-88.1395,2.377,19.77,1111122 
DISL,ioos:station:DISL:CATA:1,2013-09-02T20:00:00Z,30.3085,-88.1395,2.358,19.42,1111122 
DISL,ioos:station:DISL:CATA:1,2013-09-02T20:30:00Z,30.3085,-88.1395,2.341,18.25,1111122 
DISL,ioos:station:DISL:CATA:1,2013-09-02T21:00:00Z,30.3085,-88.1395,2.331,18.65,1111122 
DISL,ioos:station:DISL:CATA:1,2013-09-02T21:30:00Z,30.3085,-88.1395,2.321,17.7,1111122 
DISL,ioos:station:DISL:CATA:1,2013-09-02T22:00:00Z,30.3085,-88.1395,2.314,18.14,1111122 
DISL,ioos:station:DISL:CATA:1,2013-09-02T22:30:00Z,30.3085,-88.1395,2.317,16.19,1111122 
DISL,ioos:station:DISL:CATA:1,2013-09-02T23:00:00Z,30.3085,-88.1395,2.293,16.41,1111122 
DISL,ioos:station:DISL:CATA:1,2013-09-02T23:30:00Z,30.3085,-88.1395,2.279,17.38,1111122 
DISL,ioos:station:DISL:CATA:1,2013-09-03T00:00:00Z,30.3085,-88.1395,2.288,16.99,1111122 
DISL,ioos:station:DISL:CATA:1,2013-09-03T00:30:00Z,30.3085,-88.1395,2.297,14.12,1111122 
DISL,ioos:station:DISL:CATA:1,2013-09-03T01:00:00Z,30.3085,-88.1395,2.287,15.37,1111122 
DISL,ioos:station:DISL:CATA:1,2013-09-03T01:30:00Z,30.3085,-88.1395,2.287,16.62,1111122 
DISL,ioos:station:DISL:CATA:1,2013-09-03T02:00:00Z,30.3085,-88.1395,2.307,17.21,1111122 
DISL,ioos:station:DISL:CATA:1,2013-09-03T02:30:00Z,30.3085,-88.1395,2.324,16.53,1111122 
DISL,ioos:station:DISL:CATA:1,2013-09-03T03:00:00Z,30.3085,-88.1395,2.346,17.29,1111122 
DISL,ioos:station:DISL:CATA:1,2013-09-03T03:30:00Z,30.3085,-88.1395,2.372,17.73,1111122 
DISL,ioos:station:DISL:CATA:1,2013-09-03T04:00:00Z,30.3085,-88.1395,2.394,17.66,1111122 
DISL,ioos:station:DISL:CATA:1,2013-09-03T04:30:00Z,30.3085,-88.1395,2.446,18.37,1111122 
DISL,ioos:station:DISL:CATA:1,2013-09-03T05:00:00Z,30.3085,-88.1395,2.453,18.13,1111122 
DISL,ioos:station:DISL:CATA:1,2013-09-03T05:30:00Z,30.3085,-88.1395,2.441,18.53,1111122 
DISL,ioos:station:DISL:CATA:1,2013-09-03T06:00:00Z,30.3085,-88.1395,2.447,17.65,1111122 
DISL,ioos:station:DISL:CATA:1,2013-09-03T06:30:00Z,30.3085,-88.1395,2.462,17.61,1111122 
DISL,ioos:station:DISL:CATA:1,2013-09-03T07:00:00Z,30.3085,-88.1395,2.467,16.69,1111122 
DISL,ioos:station:DISL:CATA:1,2013-09-03T07:30:00Z,30.3085,-88.1395,2.454,17.37,1111122 
DISL,ioos:station:DISL:CATA:1,2013-09-03T08:00:00Z,30.3085,-88.1395,2.466,17.74,1111122 
DISL,ioos:station:DISL:CATA:1,2013-09-03T08:30:00Z,30.3085,-88.1395,2.474,17.86,1111122 
DISL,ioos:station:DISL:CATA:1,2013-09-03T09:00:00Z,30.3085,-88.1395,2.476,17.98,1111122 
DISL,ioos:station:DISL:CATA:1,2013-09-03T09:30:00Z,30.3085,-88.1395,2.486,18.02,1111122 
DISL,ioos:station:DISL:CATA:1,2013-09-03T10:00:00Z,30.3085,-88.1395,2.496,18.23,1111122 
DISL,ioos:station:DISL:CATA:1,2013-09-03T10:30:00Z,30.3085,-88.1395,2.525,18.56,1111122 
DISL,ioos:station:DISL:CATA:1,2013-09-03T11:00:00Z,30.3085,-88.1395,2.519,19.74,1111122 
DISL,ioos:station:DISL:CATA:1,2013-09-03T11:30:00Z,30.3085,-88.1395,2.539,17.31,1111122 
DISL,ioos:station:DISL:CATA:1,2013-09-03T12:00:00Z,30.3085,-88.1395,2.547,18.21,1111122 
DISL,ioos:station:DISL:CATA:1,2013-09-03T12:30:00Z,30.3085,-88.1395,2.555,18.18,1111122 
DISL,ioos:station:DISL:CATA:1,2013-09-03T13:00:00Z,30.3085,-88.1395,2.559,18.33,1111122 
DISL,ioos:station:DISL:CATA:1,2013-09-03T13:30:00Z,30.3085,-88.1395,2.563,17.91,1111122 
DISL,ioos:station:DISL:CATA:1,2013-09-03T14:00:00Z,30.3085,-88.1395,2.557,16.97,1111122 
DISL,ioos:station:DISL:CATA:1,2013-09-03T14:30:00Z,30.3085,-88.1395,2.561,17.59,1111122 
DISL,ioos:station:DISL:CATA:1,2013-09-03T15:00:00Z,30.3085,-88.1395,2.574,18.24,1111122 
DISL,ioos:station:DISL:CATA:1,2013-09-03T15:30:00Z,30.3085,-88.1395,2.569,18.7,1111122 
DISL,ioos:station:DISL:CATA:1,2013-09-03T16:00:00Z,30.3085,-88.1395,2.57,18.72,1111122 
DISL,ioos:station:DISL:CATA:1,2013-09-03T16:30:00Z,30.3085,-88.1395,2.581,18.71,1111122 
DISL,ioos:station:DISL:CATA:1,2013-09-03T17:00:00Z,30.3085,-88.1395,2.566,18.91,1111122 
DISL,ioos:station:DISL:CATA:1,2013-09-03T17:30:00Z,30.3085,-88.1395,2.558,18.96,1111122 
DISL,ioos:station:DISL:CATA:1,2013-09-03T18:00:00Z,30.3085,-88.1395,2.53,18.85,1111122 
DISL,ioos:station:DISL:CATA:1,2013-09-03T18:30:00Z,30.3085,-88.1395,2.504,19.09,1111122 
DISL,ioos:station:DISL:CATA:1,2013-09-03T19:00:00Z,30.3085,-88.1395,2.493,18.82,1111122 
DISL,ioos:station:DISL:CATA:1,2013-09-03T19:30:00Z,30.3085,-88.1395,2.465,19.05,1111122 
DISL,ioos:station:DISL:CATA:1,2013-09-03T20:00:00Z,30.3085,-88.1395,2.437,18.65,1111122 
DISL,ioos:station:DISL:CATA:1,2013-09-03T20:30:00Z,30.3085,-88.1395,2.408,19.03,1111122 
DISL,ioos:station:DISL:CATA:1,2013-09-03T21:00:00Z,30.3085,-88.1395,2.381,17.92,1111122 
DISL,ioos:station:DISL:CATA:1,2013-09-03T21:30:00Z,30.3085,-88.1395,2.364,17.17,1111122 
DISL,ioos:station:DISL:CATA:1,2013-09-03T22:00:00Z,30.3085,-88.1395,2.351,17.36,1111122 
DISL,ioos:station:DISL:CATA:1,2013-09-03T22:30:00Z,30.3085,-88.1395,2.342,17.18,1111122 
DISL,ioos:station:DISL:CATA:1,2013-09-03T23:00:00Z,30.3085,-88.1395,2.36,15.56,1111122 
DISL,ioos:station:DISL:CATA:1,2013-09-03T23:30:00Z,30.3085,-88.1395,2.36,15.56,1111122 
DISL,ioos:station:DISL:CATA:1,2013-09-04T00:00:00Z,30.3085,-88.1395,2.306,14.01,1111122 
DISL,ioos:station:DISL:CATA:1,2013-09-04T00:30:00Z,30.3085,-88.1395,2.281,13.64,1111122 
DISL,ioos:station:DISL:CATA:1,2013-09-04T01:00:00Z,30.3085,-88.1395,2.24,14.66,1111122 
DISL,ioos:station:DISL:CATA:1,2013-09-04T01:30:00Z,30.3085,-88.1395,2.259,13.26,1111122 
DISL,ioos:station:DISL:CATA:1,2013-09-04T02:00:00Z,30.3085,-88.1395,2.278,12.89,1111122 
DISL,ioos:station:DISL:CATA:1,2013-09-04T02:30:00Z,30.3085,-88.1395,2.259,13.04,1111122 
DISL,ioos:station:DISL:CATA:1,2013-09-04T03:00:00Z,30.3085,-88.1395,2.225,13.24,1111122 
DISL,ioos:station:DISL:CATA:1,2013-09-04T03:30:00Z,30.3085,-88.1395,2.228,13.27,1111122 
DISL,ioos:station:DISL:CATA:1,2013-09-04T04:00:00Z,30.3085,-88.1395,2.291,13.78,1111122 
DISL,ioos:station:DISL:CATA:1,2013-09-04T04:30:00Z,30.3085,-88.1395,2.346,13.97,1111122 
DISL,ioos:station:DISL:CATA:1,2013-09-04T05:00:00Z,30.3085,-88.1395,2.37,14.53,1111122 
DISL,ioos:station:DISL:CATA:1,2013-09-04T05:30:00Z,30.3085,-88.1395,2.369,14.94,1111122 
DISL,ioos:station:DISL:CATA:1,2013-09-04T06:00:00Z,30.3085,-88.1395,2.36,14.98,1111122 
DISL,ioos:station:DISL:CATA:1,2013-09-04T06:30:00Z,30.3085,-88.1395,2.364,15.3,1111122 
DISL,ioos:station:DISL:CATA:1,2013-09-04T07:00:00Z,30.3085,-88.1395,2.35,15.64,1111122 
DISL,ioos:station:DISL:CATA:1,2013-09-04T07:30:00Z,30.3085,-88.1395,2.379,16.03,1111122 
DISL,ioos:station:DISL:CATA:1,2013-09-04T08:00:00Z,30.3085,-88.1395,2.396,17.22,1111122 
DISL,ioos:station:DISL:CATA:1,2013-09-04T08:30:00Z,30.3085,-88.1395,2.381,16.78,1111122 
DISL,ioos:station:DISL:CATA:1,2013-09-04T09:00:00Z,30.3085,-88.1395,2.387,16.34,1111122 
DISL,ioos:station:DISL:CATA:1,2013-09-04T09:30:00Z,30.3085,-88.1395,2.373,16.62,1111122 
DISL,ioos:station:DISL:CATA:1,2013-09-04T10:00:00Z,30.3085,-88.1395,2.384,16.72,1111122 
DISL,ioos:station:DISL:CATA:1,2013-09-04T10:30:00Z,30.3085,-88.1395,2.395,13.88,1111122 
DISL,ioos:station:DISL:CATA:1,2013-09-04T11:00:00Z,30.3085,-88.1395,2.403,13.64,1111122 
DISL,ioos:station:DISL:CATA:1,2013-09-04T11:30:00Z,30.3085,-88.1395,2.413,13.66,1111122 
DISL,ioos:station:DISL:CATA:1,2013-09-04T12:00:00Z,30.3085,-88.1395,2.435,13.94,1111122 
DISL,ioos:station:DISL:CATA:1,2013-09-04T12:30:00Z,30.3085,-88.1395,2.455,13.89,1111122 
DISL,ioos:station:DISL:CATA:1,2013-09-04T13:00:00Z,30.3085,-88.1395,2.493,16.88,1111122 
DISL,ioos:station:DISL:CATA:1,2013-09-04T13:30:00Z,30.3085,-88.1395,2.525,17.83,1111122 
DISL,ioos:station:DISL:CATA:1,2013-09-04T14:00:00Z,30.3085,-88.1395,2.55,17.03,1111122 
DISL,ioos:station:DISL:CATA:1,2013-09-04T14:30:00Z,30.3085,-88.1395,2.551,18.38,1111122 
DISL,ioos:station:DISL:CATA:1,2013-09-04T15:00:00Z,30.3085,-88.1395,2.558,17.15,1111122 
DISL,ioos:station:DISL:CATA:1,2013-09-04T15:30:00Z,30.3085,-88.1395,2.559,17.32,1111122 
DISL,ioos:station:DISL:CATA:1,2013-09-04T16:00:00Z,30.3085,-88.1395,2.565,17.53,1111122 
DISL,ioos:station:DISL:CATA:1,2013-09-04T16:30:00Z,30.3085,-88.1395,2.568,18.6,1111122 
DISL,ioos:station:DISL:CATA:1,2013-09-04T17:00:00Z,30.3085,-88.1395,2.561,18.77,1111122 
DISL,ioos:station:DISL:CATA:1,2013-09-04T17:30:00Z,30.3085,-88.1395,2.548,19.08,1111122 
DISL,ioos:station:DISL:CATA:1,2013-09-04T18:00:00Z,30.3085,-88.1395,2.516,18.98,1111122 
DISL,ioos:station:DISL:CATA:1,2013-09-04T18:30:00Z,30.3085,-88.1395,2.494,18.85,1111122 
DISL,ioos:station:DISL:CATA:1,2013-09-04T19:00:00Z,30.3085,-88.1395,2.481,18.68,1111122 
DISL,ioos:station:DISL:CATA:1,2013-09-04T19:30:00Z,30.3085,-88.1395,2.466,15.15,1111122 
DISL,ioos:station:DISL:CATA:1,2013-09-04T20:00:00Z,30.3085,-88.1395,2.429,14.73,1111122 
DISL,ioos:station:DISL:CATA:1,2013-09-04T20:30:00Z,30.3085,-88.1395,2.397,13.44,1111122 
DISL,ioos:station:DISL:CATA:1,2013-09-04T21:00:00Z,30.3085,-88.1395,2.347,13.44,1111122 
DISL,ioos:station:DISL:CATA:1,2013-09-04T21:30:00Z,30.3085,-88.1395,2.325,13.23,1111122 
DISL,ioos:station:DISL:CATA:1,2013-09-04T22:00:00Z,30.3085,-88.1395,2.298,13.19,1111122 
DISL,ioos:station:DISL:CATA:1,2013-09-04T22:30:00Z,30.3085,-88.1395,2.287,13.11,1111122 
DISL,ioos:station:DISL:CATA:1,2013-09-04T23:00:00Z,30.3085,-88.1395,2.286,13.08,1111122 
DISL,ioos:station:DISL:CATA:1,2013-09-04T23:30:00Z,30.3085,-88.1395,2.277,12.25,1111122 
DISL,ioos:station:DISL:CATA:1,2013-09-05T00:00:00Z,30.3085,-88.1395,2.28,12.34,1111122 
DISL,ioos:station:DISL:CATA:1,2013-09-05T00:30:00Z,30.3085,-88.1395,2.295,12.21,1111122 
DISL,ioos:station:DISL:CATA:1,2013-09-05T01:00:00Z,30.3085,-88.1395,2.313,12.37,1111122 
DISL,ioos:station:DISL:CATA:1,2013-09-05T01:30:00Z,30.3085,-88.1395,2.326,11.83,1111122 
DISL,ioos:station:DISL:CATA:1,2013-09-05T02:00:00Z,30.3085,-88.1395,2.312,12.38,1111122 
DISL,ioos:station:DISL:CATA:1,2013-09-05T02:30:00Z,30.3085,-88.1395,2.316,12.2,1111122 
DISL,ioos:station:DISL:CATA:1,2013-09-05T03:00:00Z,30.3085,-88.1395,2.305,12.58,1111122 
DISL,ioos:station:DISL:CATA:1,2013-09-05T03:30:00Z,30.3085,-88.1395,2.301,12.28,1111122 
DISL,ioos:station:DISL:CATA:1,2013-09-05T04:00:00Z,30.3085,-88.1395,2.294,12.28,1111122 
DISL,ioos:station:DISL:CATA:1,2013-09-05T04:30:00Z,30.3085,-88.1395,2.321,12.84,1111122 
DISL,ioos:station:DISL:CATA:1,2013-09-05T05:00:00Z,30.3085,-88.1395,2.338,12.53,1111122 
DISL,ioos:station:DISL:CATA:1,2013-09-05T05:30:00Z,30.3085,-88.1395,2.319,13.0,1111122 
DISL,ioos:station:DISL:CATA:1,2013-09-05T06:00:00Z,30.3085,-88.1395,2.342,12.85,1111122 
DISL,ioos:station:DISL:CATA:1,2013-09-05T06:30:00Z,30.3085,-88.1395,2.349,13.1,1111122 
DISL,ioos:station:DISL:CATA:1,2013-09-05T07:00:00Z,30.3085,-88.1395,2.352,13.5,1111122 
DISL,ioos:station:DISL:CATA:1,2013-09-05T07:30:00Z,30.3085,-88.1395,2.348,13.13,1111122 
DISL,ioos:station:DISL:CATA:1,2013-09-05T08:00:00Z,30.3085,-88.1395,2.341,13.56,1111122 
DISL,ioos:station:DISL:CATA:1,2013-09-05T08:30:00Z,30.3085,-88.1395,2.357,13.4,1111122 
DISL,ioos:station:DISL:CATA:1,2013-09-05T09:00:00Z,30.3085,-88.1395,2.346,13.16,1111122 
DISL,ioos:station:DISL:CATA:1,2013-09-05T09:30:00Z,30.3085,-88.1395,2.353,13.88,1111122 
DISL,ioos:station:DISL:CATA:1,2013-09-05T10:00:00Z,30.3085,-88.1395,2.342,13.05,1111122 
DISL,ioos:station:DISL:CATA:1,2013-09-05T10:30:00Z,30.3085,-88.1395,2.342,13.19,1111122 
DISL,ioos:station:DISL:CATA:1,2013-09-05T11:00:00Z,30.3085,-88.1395,2.355,13.02,1111122 
DISL,ioos:station:DISL:CATA:1,2013-09-05T11:30:00Z,30.3085,-88.1395,2.362,12.22,1111122 
DISL,ioos:station:DISL:CATA:1,2013-09-05T12:00:00Z,30.3085,-88.1395,2.365,12.65,1111122 
DISL,ioos:station:DISL:CATA:1,2013-09-05T12:30:00Z,30.3085,-88.1395,2.382,12.68,1111122 
DISL,ioos:station:DISL:CATA:1,2013-09-05T13:00:00Z,30.3085,-88.1395,2.404,12.65,1111122 
DISL,ioos:station:DISL:CATA:1,2013-09-05T13:30:00Z,30.3085,-88.1395,2.431,12.76,1111122 
DISL,ioos:station:DISL:CATA:1,2013-09-05T14:00:00Z,30.3085,-88.1395,2.448,12.83,1111122 
DISL,ioos:station:DISL:CATA:1,2013-09-05T14:30:00Z,30.3085,-88.1395,2.469,13.02,1111122 
DISL,ioos:station:DISL:CATA:1,2013-09-05T15:00:00Z,30.3085,-88.1395,2.473,15.91,1111122 
DISL,ioos:station:DISL:CATA:1,2013-09-05T15:30:00Z,30.3085,-88.1395,2.49,17.53,1111122 
DISL,ioos:station:DISL:CATA:1,2013-09-05T16:00:00Z,30.3085,-88.1395,2.501,17.64,1111122 
DISL,ioos:station:DISL:CATA:1,2013-09-05T16:30:00Z,30.3085,-88.1395,2.51,18.09,1111122 
DISL,ioos:station:DISL:CATA:1,2013-09-05T17:00:00Z,30.3085,-88.1395,2.518,18.35,1111122 
DISL,ioos:station:DISL:CATA:1,2013-09-05T17:30:00Z,30.3085,-88.1395,2.522,18.02,1111122 
DISL,ioos:station:DISL:CATA:1,2013-09-05T18:00:00Z,30.3085,-88.1395,2.523,17.9,1111122 
DISL,ioos:station:DISL:CATA:1,2013-09-05T18:30:00Z,30.3085,-88.1395,2.517,18.51,1111122 
DISL,ioos:station:DISL:CATA:1,2013-09-05T19:00:00Z,30.3085,-88.1395,2.502,18.73,1111122 
DISL,ioos:station:DISL:CATA:1,2013-09-05T19:30:00Z,30.3085,-88.1395,2.487,18.07,1111122 
DISL,ioos:station:DISL:CATA:1,2013-09-05T20:00:00Z,30.3085,-88.1395,2.465,18.37,1111122 
DISL,ioos:station:DISL:CATA:1,2013-09-05T20:30:00Z,30.3085,-88.1395,2.443,17.78,1111122 
DISL,ioos:station:DISL:CATA:1,2013-09-05T21:00:00Z,30.3085,-88.1395,2.434,14.86,1111122 
DISL,ioos:station:DISL:CATA:1,2013-09-05T21:30:00Z,30.3085,-88.1395,2.42,14.02,1111122 
DISL,ioos:station:DISL:CATA:1,2013-09-05T22:00:00Z,30.3085,-88.1395,2.402,12.43,1111122 
DISL,ioos:station:DISL:CATA:1,2013-09-05T22:30:00Z,30.3085,-88.1395,2.377,12.56,1111122 
DISL,ioos:station:DISL:CATA:1,2013-09-05T23:00:00Z,30.3085,-88.1395,2.368,12.2,1111122 
DISL,ioos:station:DISL:CATA:1,2013-09-05T23:30:00Z,30.3085,-88.1395,2.38,11.83,1111122 
DISL,ioos:station:DISL:CATA:1,2013-09-06T00:00:00Z,30.3085,-88.1395,2.382,11.92,1111122 
DISL,ioos:station:DISL:CATA:1,2013-09-06T00:30:00Z,30.3085,-88.1395,2.388,12.26,1111122 
DISL,ioos:station:DISL:CATA:1,2013-09-06T01:00:00Z,30.3085,-88.1395,2.4,12.24,1111122 
DISL,ioos:station:DISL:CATA:1,2013-09-06T01:30:00Z,30.3085,-88.1395,2.406,12.19,1111122 
DISL,ioos:station:DISL:CATA:1,2013-09-06T02:00:00Z,30.3085,-88.1395,2.419,12.15,1111122 
DISL,ioos:station:DISL:CATA:1,2013-09-06T02:30:00Z,30.3085,-88.1395,2.43,11.05,1111122 
DISL,ioos:station:DISL:CATA:1,2013-09-06T03:00:00Z,30.3085,-88.1395,2.421,11.32,1111122 
DISL,ioos:station:DISL:CATA:1,2013-09-06T03:30:00Z,30.3085,-88.1395,2.42,11.36,1111122 
DISL,ioos:station:DISL:CATA:1,2013-09-06T04:00:00Z,30.3085,-88.1395,2.423,10.58,1111122 
DISL,ioos:station:DISL:CATA:1,2013-09-06T04:30:00Z,30.3085,-88.1395,2.417,11.37,1111122 
DISL,ioos:station:DISL:CATA:1,2013-09-06T05:00:00Z,30.3085,-88.1395,2.416,11.56,1111122 
DISL,ioos:station:DISL:CATA:1,2013-09-06T05:30:00Z,30.3085,-88.1395,2.409,11.79,1111122 
DISL,ioos:station:DISL:CATA:1,2013-09-06T06:00:00Z,30.3085,-88.1395,2.418,12.21,1111122 
DISL,ioos:station:DISL:CATA:1,2013-09-06T06:30:00Z,30.3085,-88.1395,2.398,12.38,1111122 
DISL,ioos:station:DISL:CATA:1,2013-09-06T07:00:00Z,30.3085,-88.1395,2.396,12.54,1111122 
DISL,ioos:station:DISL:CATA:1,2013-09-06T07:30:00Z,30.3085,-88.1395,2.39,12.6,1111122 
DISL,ioos:station:DISL:CATA:1,2013-09-06T08:00:00Z,30.3085,-88.1395,2.389,12.21,1111122 
DISL,ioos:station:DISL:CATA:1,2013-09-06T08:30:00Z,30.3085,-88.1395,2.388,11.82,1111122 
DISL,ioos:station:DISL:CATA:1,2013-09-06T09:00:00Z,30.3085,-88.1395,2.373,12.06,1111122 
DISL,ioos:station:DISL:CATA:1,2013-09-06T09:30:00Z,30.3085,-88.1395,2.364,11.58,1111122 
DISL,ioos:station:DISL:CATA:1,2013-09-06T10:00:00Z,30.3085,-88.1395,2.346,11.29,1111122 
DISL,ioos:station:DISL:CATA:1,2013-09-06T10:30:00Z,30.3085,-88.1395,2.33,11.33,1111122 
DISL,ioos:station:DISL:CATA:1,2013-09-06T11:00:00Z,30.3085,-88.1395,2.306,11.26,1111122 
DISL,ioos:station:DISL:CATA:1,2013-09-06T11:30:00Z,30.3085,-88.1395,2.299,11.14,1111122 
DISL,ioos:station:DISL:CATA:1,2013-09-06T12:00:00Z,30.3085,-88.1395,2.313,11.26,1111122 
DISL,ioos:station:DISL:CATA:1,2013-09-06T12:30:00Z,30.3085,-88.1395,2.32,11.56,1111122 
DISL,ioos:station:DISL:CATA:1,2013-09-06T13:00:00Z,30.3085,-88.1395,2.343,10.03,1111122 
DISL,ioos:station:DISL:CATA:1,2013-09-06T13:30:00Z,30.3085,-88.1395,2.342,11.22,1111122 
DISL,ioos:station:DISL:CATA:1,2013-09-06T14:00:00Z,30.3085,-88.1395,2.358,10.8,1111122 